Location: Newport
(44.6370°N, 124.0520°W)
Time: 22:24:44
(UTC-08:00)

Envisat - Pass Details

Date: 07 October 2017
Orbit: 764 x 766 km, 98.2° (Epoch: 16 December)

Event Time Altitude Azimuth Distance (km) Brightness Sun altitude
Exits shadow 19:58:40 21° 100° (E) 1,694 4.1 -13.9°
Maximum altitude 20:00:41 27° 64° (ENE) 1,460 4.0 -14.3°
Drops below altitude 10° 20:04:53 10° 9° (N) 2,315 5.5 -15.0°
Sets 20:07:30 0° 358° (N) 3,246 6.4 -15.5°
